Probability
0 0 0 0 0 0 0 0 0 0 0 0 0 0 0 0 0 0 0 0 0 0 0 0 0 0 0 0 0 0 0 0 0 0 0 0 0 0
0 0 0 0 0 0 0 0 0 0 0 0 0 0 0 0 0 0 0 0 0 0 0 0 0 0 0 0 0 0 0 0 0 0 0 0 0 0
0 0 0 0 0 0 0 0 0 0 0 0 0 0 0 0 0 0 0 0 0 0 0 0 0 0 0 0 0 0 0 0 0 0 0 0 0 0
0 0 0 0 0 0 0 0 0 0 0 0 0 0 0 0 0 0 0 0 0 0 0 0 0 0 0 0 0 0 0 0 0 0 0 0 0 0
0 0 0 0 0 0 0 0 0 0 0 0 0 0 0 0 0 0 0 0 0 0 0 0 0 0 0 0 0 0 0 0 0 0 0 0 0 0
0 0 0 0 0 0 0 0 0 0 0 0 0 0 0 0 0 0 0 0 0 0 0 0 0 0 0 0 0 0 0 0 0 0 0 0 0 0
0 0 0 0 0 0 0 0 0 0 0 0 0 0 0 0 0 0 0 0 0 0 0 0 0 0 0 0 0 0 0 0 0 0 0 0 0 0
0 0 0 0 0 0 0 0 0 0 0 0 0 0 0 0 0 0 0 0 0 0 0 0 0 0 0 0 0 0 0 0 0 0 0 0 0 0
0 0 0 0 0 0 0 0 0 0 0 0 0 0 0 0 0 0 0 0 0 0 0 0 0 0 0 0 0 0 0 0 0 0 0 0 0 0
0 0 0 0 0 0 0 0 0 0 0 0 0 0 0 0 0 0 0 0 0 0 0 0 0 0 0 0 0 0 0 0 0 0 0 0 0 0
0 0 0 0 0 0 0 0 0 0 0 0 0 0 0 0 0 0 0 0 0 0 0 0 0 0 0 0 0 0 0 0 0 0 0 0 0 0
0 0 0 0 0 0 0 0 0 0 0 0 0 0 0 0 0 0 0 0 0 0 0 0 0 0 0 0 0 0 0 0 0 0 0 0 0 0
0 0 0 0 0 0 0 0 0 0 0 0 0 0 0 0 0 0 0 0 0 0 0 0 0 0 0 0 0 0 0 0 0 0 0 0 0 0
0 0 0 0 0 0 0 0 0 0 0 0 0 0 0 0 0 0 0 0 0 0 0 0 0 0 0 0 0 0 0 0 0 0 0 0 0 0
0 0 0 0 0 0 0 0 0 0 0 0 0 0 0 0 0 0 0 0 0 0 0 0 0 0 0 0 0 0 0 0 0 0 0 0 0 0
0 0 0 0 0 0 0 0 0 0 0 0 0 0 0 0 0 0 0 0 0 0 0 0 0 0 0 0 0 0 0 0 0 0 0 0 0 0
0 0 0 0 0 0 0 0 0 0 0 0 0 0 0 0 0 0 0 0 0 0 0 0 0 0 0 0 0 0 0 0 0 0 0 0 0 0
0 0 0 0 0 0 0 0 0 0 0 0 0 0 0 0 0 0 0 0 0 0 0 0 0 0 0 0 0 0 0 0 0 0 0 0 0 0
0 0 0 0 0 0 0 0 0 0 0 0 0 0 0 0 0 0 0 0 0 0 0 0 0 0 0 0 0 0 0 0 0 0 0 0 0 0
0 0 0 0 0 0 0 0 0 0 0 0 0 0 0 0 0 0 0 0 0 0 0 0 0 0 0 0 0 0 0 0 0 0 0 0 0 0
0 0 0 0 0 0 0 0 0 0 0 0 0 0 0 0 0 0 0 0 0 0 0 0 0 0 0 0 0 0 0 0 0 0 0 0 0 0
0 0 0 0 0 0 0 0 0 0 0 0 0 0 0 0 0 0 0 0 0 0 0 0 0 0 0 0 0 0 0 0 0 0 0 0 0 0
0 0 0 0 0 0 0 0 0 0 0 0 0 0 0 0 0 0 0 0 0 0 0 0 0 0 0 0 0 0 0 0 0 0 0 0 0 0
Height
5707 5702 5696 5691 5685 5678 5672 5666 5662 5658 5657 5655 5652 5650 5649 5647 5647 5648 5648 5648 5649 5649 5649 5649 5649 5649 5649 5649 5649 5649 5649 5650 5650 5650 5651 5652 5652 5653
5696 5691 5685 5679 5673 5667 5660 5654 5649 5645 5643 5641 5639 5637 5636 5635 5635 5635 5635 5636 5636 5635 5636 5636 5636 5636 5635 5635 5635 5634 5634 5634 5634 5635 5635 5635 5635 5636
5686 5680 5674 5668 5662 5656 5650 5644 5639 5635 5632 5630 5628 5626 5625 5624 5623 5623 5624 5624 5624 5623 5623 5622 5622 5621 5621 5620 5619 5619 5618 5618 5618 5617 5617 5617 5617 5618
5676 5670 5664 5658 5652 5646 5641 5635 5630 5627 5624 5621 5619 5617 5615 5615 5614 5613 5613 5613 5613 5612 5610 5609 5608 5607 5606 5605 5604 5603 5602 5601 5601 5600 5600 5599 5599 5599
5666 5661 5655 5649 5644 5638 5633 5628 5623 5620 5616 5614 5611 5609 5607 5606 5605 5603 5603 5602 5601 5599 5598 5596 5594 5592 5591 5589 5588 5587 5586 5585 5584 5583 5581 5581 5580 5580
5658 5653 5647 5642 5636 5631 5626 5622 5617 5614 5610 5607 5605 5602 5600 5598 5596 5595 5593 5591 5589 5587 5585 5583 5580 5578 5576 5574 5572 5571 5569 5567 5566 5565 5563 5563 5562 5561
5650 5645 5640 5635 5630 5625 5620 5616 5612 5608 5605 5601 5599 5596 5593 5591 5588 5586 5583 5580 5578 5575 5572 5569 5566 5563 5560 5558 5556 5554 5552 5550 5548 5547 5545 5544 5543 5542
5643 5638 5633 5628 5624 5619 5615 5611 5607 5603 5599 5595 5592 5589 5586 5583 5579 5576 5573 5570 5566 5564 5559 5555 5551 5548 5544 5542 5539 5537 5535 5533 5531 5529 5527 5526 5524 5523
5635 5631 5627 5622 5617 5613 5609 5605 5601 5596 5593 5589 5585 5581 5577 5574 5570 5566 5562 5557 5553 5549 5545 5540 5536 5532 5528 5524 5522 5519 5517 5515 5513 5511 5509 5508 5506 5505
5629 5624 5620 5616 5611 5607 5603 5598 5594 5590 5585 5581 5577 5572 5568 5563 5559 5554 5549 5545 5540 5535 5530 5525 5519 5515 5510 5507 5504 5502 5500 5498 5496 5493 5492 5490 5489 5488
5622 5617 5613 5609 5604 5600 5596 5591 5586 5582 5577 5572 5567 5562 5557 5552 5547 5542 5537 5531 5525 5519 5514 5509 5504 5499 5493 5489 5486 5484 5482 5480 5479 5477 5475 5474 5473 5472
5615 5610 5606 5602 5597 5592 5588 5583 5578 5573 5568 5563 5557 5552 5546 5541 5535 5529 5523 5517 5510 5505 5499 5494 5488 5484 5479 5473 5469 5467 5465 5464 5463 5461 5460 5458 5457 5456
5607 5603 5599 5594 5589 5584 5579 5574 5569 5564 5558 5552 5547 5541 5535 5528 5522 5516 5509 5503 5496 5491 5485 5480 5475 5469 5465 5460 5455 5452 5451 5449 5448 5447 5446 5444 5443 5442
5600 5595 5591 5586 5581 5576 5570 5565 5559 5554 5548 5542 5535 5529 5522 5516 5509 5502 5496 5489 5483 5477 5472 5467 5462 5456 5451 5447 5443 5439 5437 5436 5435 5434 5432 5431 5430 5429
5592 5587 5582 5577 5572 5567 5561 5555 5549 5543 5537 5530 5524 5517 5510 5503 5496 5489 5482 5476 5469 5463 5458 5453 5448 5443 5438 5435 5432 5429 5426 5424 5423 5422 5421 5419 5417 5416
5584 5579 5574 5568 5563 5557 5551 5545 5539 5533 5526 5519 5511 5504 5497 5490 5483 5476 5469 5462 5456 5449 5445 5440 5435 5431 5427 5423 5421 5418 5416 5415 5413 5411 5410 5408 5406 5405
5575 5570 5565 5559 5554 5548 5541 5535 5528 5522 5514 5507 5500 5492 5485 5478 5470 5463 5456 5450 5443 5437 5431 5427 5423 5419 5416 5413 5411 5408 5406 5405 5403 5402 5400 5399 5396 5394
5566 5561 5556 5550 5544 5537 5531 5524 5517 5510 5503 5495 5488 5480 5472 5465 5458 5451 5444 5438 5431 5425 5420 5415 5412 5409 5406 5402 5400 5398 5397 5395 5394 5392 5391 5390 5387 5383
5557 5552 5546 5540 5534 5527 5520 5514 5506 5499 5491 5483 5476 5468 5460 5452 5445 5438 5432 5426 5420 5414 5409 5404 5401 5398 5396 5394 5391 5387 5387 5386 5384 5383 5381 5379 5378 5375
5548 5542 5536 5530 5523 5517 5510 5503 5495 5488 5480 5472 5464 5456 5448 5440 5433 5426 5420 5414 5409 5404 5399 5394 5390 5388 5386 5385 5383 5379 5376 5375 5375 5373 5371 5369 5367 5365
5538 5532 5526 5520 5513 5506 5499 5492 5484 5476 5468 5460 5452 5444 5436 5429 5422 5415 5409 5403 5398 5393 5389 5384 5380 5378 5376 5374 5373 5371 5367 5364 5363 5363 5361 5360 5358 5356
5528 5522 5516 5509 5502 5495 5488 5481 5473 5465 5457 5449 5441 5432 5425 5417 5410 5404 5398 5392 5387 5383 5379 5375 5371 5368 5365 5364 5362 5361 5359 5355 5352 5351 5349 5348 5348 5347
5518 5511 5505 5499 5492 5484 5477 5469 5461 5454 5446 5438 5430 5421 5413 5406 5399 5393 5387 5382 5377 5373 5369 5366 5363 5359 5356 5354 5352 5351 5349 5346 5343 5342 5339 5336 5336 5336
Wind_Speed
47 49 51 51 52 52 52 52 52 50 48 48 48 48 47 46 47 47 49 49 51 52 50 48 49 49 50 49 49 49 49 50 50 51 51 51 52 52
46 47 48 47 47 48 48 47 47 47 45 44 45 45 44 44 43 44 45 46 47 49 50 49 49 51 50 50 51 50 50 51 51 52 53 52 53 54
44 44 43 43 43 44 43 42 42 42 41 40 41 41 41 42 41 42 44 45 46 48 48 48 49 49 50 50 51 52 52 52 52 53 54 55 56 56
41 40 40 40 41 41 39 38 37 37 37 37 37 37 38 38 40 41 42 44 45 47 48 49 49 50 50 51 52 52 53 52 53 53 54 55 55 56
37 38 38 37 37 36 35 35 35 34 34 35 35 35 36 36 38 39 41 42 44 45 46 48 49 49 50 51 51 51 52 52 52 53 53 54 55 56
35 35 34 34 33 32 32 32 32 31 31 31 32 33 34 35 37 39 40 42 43 45 46 47 48 49 50 51 51 51 52 52 53 53 54 54 55 56
33 32 32 32 31 30 29 29 29 29 29 30 31 32 33 34 36 38 40 42 43 45 46 48 48 49 50 51 51 52 52 52 53 53 54 55 55 56
31 31 31 30 30 29 29 29 29 29 29 30 32 33 34 36 37 39 41 43 45 46 47 49 50 51 52 53 53 53 53 53 53 53 54 54 55 55
30 30 30 29 29 29 29 29 30 30 31 32 33 34 35 37 39 41 43 45 47 48 49 51 52 53 54 54 54 54 53 53 53 52 52 53 53 53
30 30 30 30 30 30 30 31 31 32 33 34 35 36 38 39 41 42 44 47 49 50 51 52 53 53 54 54 53 53 53 52 52 51 51 50 50 50
29 30 30 31 31 31 32 33 33 34 36 37 38 39 40 42 43 45 47 48 50 51 51 51 51 52 52 52 52 51 51 50 49 48 47 47 46 46
30 31 31 32 32 33 34 35 36 37 38 39 40 41 42 43 45 47 48 49 49 49 49 48 48 47 47 48 48 48 46 45 43 43 43 43 43 43
31 32 33 34 34 35 36 37 38 39 40 41 42 43 44 45 46 47 48 47 47 46 46 45 45 45 44 44 44 44 42 41 40 39 39 39 39 39
33 33 34 35 36 37 37 39 39 40 41 43 44 45 46 46 47 47 47 46 46 45 45 44 43 43 42 41 40 41 40 39 38 37 37 37 37 37
33 34 35 36 37 38 39 40 41 42 44 45 46 46 47 47 47 47 47 46 46 45 43 42 41 40 39 38 37 37 37 37 36 35 35 36 36 36
34 35 36 37 38 40 41 42 43 44 45 46 47 47 48 48 48 47 47 46 45 45 43 41 39 37 36 35 33 33 34 33 34 34 33 34 34 34
35 36 37 39 40 41 42 43 44 45 46 47 48 48 48 48 48 47 46 45 43 43 42 41 38 36 34 33 32 32 31 31 31 31 31 31 33 33
37 38 39 40 42 43 43 44 45 47 48 48 49 49 48 48 48 47 45 43 42 41 40 39 36 34 32 32 32 30 30 29 29 30 30 30 31 33
38 39 41 42 43 44 44 46 47 48 48 49 49 49 49 48 47 46 44 42 40 39 38 37 34 32 30 30 31 31 30 29 29 30 30 30 30 31
39 40 42 43 44 44 45 47 48 48 49 49 49 49 48 47 46 44 43 41 39 37 36 36 34 32 30 29 29 31 33 31 30 30 31 30 30 30
40 41 43 44 44 45 47 48 48 49 49 49 49 49 48 46 45 43 41 40 37 35 34 34 34 33 31 29 28 29 32 33 32 30 29 29 28 29
41 42 44 45 45 47 48 48 49 49 49 49 49 48 47 46 44 42 40 38 36 34 33 33 33 32 31 30 28 28 30 32 33 31 30 29 27 26
42 44 45 46 47 47 48 48 49 49 48 48 48 47 46 44 43 41 39 37 35 33 32 31 31 31 31 30 29 28 29 29 30 30 30 30 28 26
Wind_Direction
294 294 295 295 295 295 294 291 288 286 283 280 279 276 275 274 271 270 269 270 270 270 272 274 274 275 274 273 274 274 275 273 272 271 270 269 269 268
295 296 297 297 297 297 297 294 291 288 286 282 280 279 277 278 275 272 271 272 272 273 273 275 275 274 275 275 276 276 276 276 275 273 271 270 270 269
298 298 300 299 299 299 298 297 294 291 289 286 284 282 280 279 276 273 273 275 275 277 276 276 276 275 276 277 278 277 277 276 275 273 272 271 270 269
299 300 302 302 301 301 300 299 297 294 291 289 288 285 284 281 280 278 277 278 277 278 277 278 279 280 280 280 280 279 277 276 275 273 272 271 271 270
301 302 303 304 305 304 303 302 301 298 295 292 291 289 287 285 284 283 282 281 281 280 280 281 281 281 281 281 281 280 278 277 276 275 274 273 271 270
303 304 305 306 307 308 307 306 304 302 300 297 295 292 291 289 287 286 285 284 284 283 283 283 282 282 282 281 281 280 279 278 277 276 275 274 273 271
305 306 307 307 308 309 309 308 307 305 303 301 298 296 294 293 291 289 288 287 287 286 286 285 285 284 283 283 282 281 280 279 278 277 275 274 273 273
304 306 307 308 308 308 309 308 308 307 305 303 301 299 297 295 294 292 291 290 289 288 288 288 287 286 285 284 283 282 281 280 279 278 277 275 274 273
305 306 306 307 308 308 308 308 308 308 307 305 303 301 299 298 296 294 293 292 291 290 290 289 288 287 286 284 283 282 281 280 279 278 277 275 274 274
305 306 306 307 307 308 309 309 309 308 308 307 305 303 301 300 299 297 296 295 293 292 291 290 289 288 286 285 283 282 281 280 279 277 276 275 274 273
306 307 307 308 308 308 308 309 309 308 308 307 306 304 303 302 301 300 299 297 296 294 293 291 290 289 288 286 284 282 282 280 279 277 276 275 274 274
306 308 308 309 309 309 309 309 309 309 309 308 308 306 305 304 304 303 302 300 298 296 295 293 292 291 289 288 286 285 283 282 280 278 277 276 276 276
307 308 308 308 309 309 309 310 310 310 310 309 309 308 307 306 306 305 305 303 301 299 297 295 293 291 290 288 287 286 284 283 282 280 279 278 278 277
307 308 309 309 309 310 310 311 311 311 311 311 311 310 309 308 308 307 306 304 302 300 299 297 295 292 290 287 284 284 284 284 283 282 281 281 280 279
308 308 309 309 310 311 311 312 312 312 312 312 312 311 311 310 309 308 307 305 303 301 300 298 296 293 290 287 284 282 282 283 283 282 282 282 281 281
308 309 310 310 311 311 312 312 312 312 313 313 312 312 312 311 310 309 307 306 304 302 300 299 297 294 291 288 284 281 280 280 281 282 283 283 282 282
309 310 310 311 312 312 312 313 313 313 313 313 313 313 312 311 311 309 308 306 303 302 301 299 297 295 292 288 285 282 280 279 279 280 282 283 283 282
308 310 310 311 312 312 312 313 314 314 314 314 314 314 313 312 311 309 308 306 304 302 300 299 296 295 292 290 287 284 281 280 281 282 282 283 283 283
308 310 311 312 312 312 313 313 314 315 315 314 314 314 313 312 311 310 308 306 304 302 300 298 296 293 290 289 288 286 283 282 283 285 285 285 283 283
309 310 311 312 312 313 313 314 315 315 315 315 315 314 314 312 311 310 308 306 304 302 300 298 296 294 290 287 284 284 285 284 284 285 285 285 284 283
309 311 312 313 313 313 314 314 315 315 316 316 316 315 314 312 311 310 308 306 304 301 300 298 296 294 292 289 285 283 284 286 286 285 283 282 282 283
310 311 312 313 313 314 314 315 315 315 316 317 317 316 315 313 311 310 309 307 304 301 299 298 296 294 293 291 287 284 284 286 288 288 286 283 282 280
310 311 312 313 314 314 315 315 315 316 317 317 318 317 316 315 313 311 309 307 305 302 299 298 297 295 294 292 290 288 286 285 286 287 288 287 285 283